sat.trackr.live / text

‹ back to catalog

STARLINK-37727

NORAD 69481 · 2026-131D

PAYLOAD ACTIVE UNKNOWN

§ Identity

Operator
Country
US
Launch date
2026-06-11
Launch site
AFWTR
Launch vehicle
Mass (kg)
RCS (m²)

Purposes: comms

External: N2YO · Heavens-Above · Gunter

§ Orbital elements

Epoch: 2026-09-19T23:23:46.288320Z

Period
93.91 min
Inclination
97.2841°
Eccentricity
0.0001786
Mean motion
15.33432142 rev/d
Perigee alt
464.4 km
Apogee alt
466.8 km
Semi-major
6,843.7 km
B*
3.6195e-4
RAAN
283.7937°
Arg perigee
99.5182°
Mean anomaly
260.6263°
Rev number
1,681

§ Raw data

STARLINK-377271 69481U 26131D   26262.97484130  .00011623  00000+0  36195-3 0  99942 69481  97.2841 283.7937 0001786  99.5182 260.6263 15.33432142 16815

JSON: /api/v1/satellites/69481 · /tle

For live sub-satellite position, see the globe view (requires WebGL).

§ Visibility from observer

Set your observer location to see the next 7 days of passes ≥ 10°. The values pass through the URL so the page stays shareable.

No JS? Fill the form by hand. The geolocation button needs JavaScript.